Date,TemperatureHighF,TemperatureAvgF,TemperatureLowF,DewpointHighF,DewpointAvgF,DewpointLowF,HumidityHigh,HumidityAvg,HumidityLow,PressureMaxIn,PressureMinIn,WindSpeedMaxMPH,WindSpeedAvgMPH,GustSpeedMaxMPH,PrecipitationSumIn
2014-1-1,57.9,47.5,40.1,46.8,40.8,36.4,93,78,59,30.05,29.96,0,-999,0,0.00
2014-1-2,60.1,51.9,42.8,43.7,39.2,36.3,85,63,50,30.01,29.89,0,-999,0,0.00
2014-1-3,59.0,51.3,45.9,47.9,41.1,36.4,75,68,58,29.91,29.79,0,-999,0,0.00
2014-1-4,61.9,50.5,43.3,47.5,38.9,23.2,96,68,33,29.92,29.81,0,-999,0,0.00
2014-1-5,59.9,51.8,45.5,36.9,29.3,19.6,56,43,32,30.05,29.92,0,-999,0,0.00
2014-1-6,59.4,51.3,44.6,42.4,37.9,32.2,70,60,49,30.12,29.99,0,-999,0,0.00
2014-1-7,58.3,51.6,45.7,51.1,43.9,38.1,94,75,59,30.05,29.97,0,-999,0,0.00
2014-1-8,60.1,53.1,46.2,51.4,49.2,44.4,95,87,70,30.07,29.99,0,-999,0,0.00
2014-1-9,56.5,50.0,45.3,51.3,45.7,41.4,98,86,70,30.10,30.03,0,-999,0,0.00
2014-1-10,59.2,50.9,45.3,50.6,46.3,41.8,99,84,68,30.14,30.01,0,-999,0,0.00
2014-1-11,60.3,50.8,45.3,53.9,47.2,43.1,95,88,76,30.13,30.00,0,-999,0,0.00
2014-1-12,55.4,49.4,43.3,47.1,42.2,36.9,98,78,55,30.22,30.09,0,-999,0,0.00
2014-1-13,62.4,52.9,45.7,40.5,37.2,33.2,69,56,41,30.30,30.16,0,-999,0,0.00
2014-1-14,65.8,55.4,48.2,37.2,33.7,28.7,58,45,31,30.29,30.15,0,-999,0,0.00
2014-1-15,66.2,55.7,49.1,39.2,33.8,28.0,53,44,32,30.19,30.03,0,-999,0,0.00
2014-1-16,67.5,56.0,48.7,36.7,32.6,28.7,51,42,29,30.07,29.96,0,-999,0,0.00
2014-1-17,64.6,53.2,44.6,42.3,36.2,30.7,69,53,39,30.03,29.94,0,-999,0,0.00
2014-1-18,65.5,53.0,43.0,43.8,37.0,33.2,83,56,33,30.01,29.89,0,-999,0,0.00
2014-1-19,61.7,51.3,42.6,41.1,35.9,33.0,70,56,40,29.98,29.88,0,-999,0,0.00
2014-1-20,65.1,52.4,43.2,41.5,36.8,33.9,75,57,33,30.06,29.94,0,-999,0,0.00
2014-1-21,64.0,52.8,42.8,42.3,35.7,30.1,82,54,33,30.09,30.00,0,-999,0,0.00
2014-1-22,45.1,45.1,45.1,29.5,29.5,29.5,54,54,54,29.95,29.95,0,-999,0,0.00
2014-1-23,54.7,53.3,52.0,33.9,33.2,32.5,50,46,43,29.79,29.76,0,-999,0,0.00
2014-1-25,67.3,62.4,55.0,45.2,40.6,36.2,49,45,41,29.98,29.96,0,-999,0,0.00
2014-1-29,57.4,57.2,56.7,55.5,55.4,55.3,96,94,93,30.03,30.01,0,-999,0,0.00
2014-2-11,48.2,46.8,45.5,47.1,46.2,45.2,99,98,96,30.06,30.06,0,-999,0,0.00
2014-2-12,46.2,46.2,46.2,46.2,46.2,46.2,100,100,100,30.06,30.06,0,-999,0,0.00